EDT,Max TemperatureF,Mean TemperatureF,Min TemperatureF,Max Dew PointF,MeanDew PointF,Min DewpointF,Max Humidity, Mean Humidity, Min Humidity, Max Sea Level PressureIn, Mean Sea Level PressureIn, Min Sea Level PressureIn, Max VisibilityMiles, Mean VisibilityMiles, Min VisibilityMiles, Max Wind SpeedMPH, Mean Wind SpeedMPH, Max Gust SpeedMPH,PrecipitationIn, CloudCover, Events, WindDirDegrees
2013-10-1,80,68,55,62,56,51,93,71,48,30.06,30.01,29.95,10,10,7,12,2,14,0.00,2,,285
2013-10-2,85,70,55,61,58,54,100,70,40,30.06,30.02,29.97,10,8,4,14,3,17,0.00,1,,300
2013-10-3,82,71,59,67,61,56,90,71,51,30.14,30.07,30.03,10,8,4,7,2,13,0.00,5,,152
2013-10-4,86,74,62,67,63,60,93,69,44,30.09,30.04,29.99,10,7,2,13,2,15,0.00,4,,342
2013-10-5,86,76,65,70,65,63,93,71,48,30.09,30.03,29.99,10,8,5,7,2,9,T,5,,142
2013-10-6,85,76,66,68,65,64,93,74,55,30.04,29.97,29.90,10,6,1,18,8,23,0.00,5,,130
2013-10-7,75,64,53,68,61,44,93,77,60,30.04,29.84,29.73,10,7,1,21,9,29,0.74,7,Rain,219
2013-10-8,68,58,47,47,43,39,86,62,37,30.31,30.23,30.06,10,10,10,14,4,22,0.00,3,,349
2013-10-9,62,54,46,47,42,38,86,64,42,30.38,30.33,30.28,10,10,10,14,4,25,0.00,7,,57
2013-10-10,58,56,53,55,51,44,100,83,66,30.27,30.13,30.04,10,5,2,14,5,25,4.02,8,Rain,329
2013-10-11,63,60,56,61,57,55,100,92,84,30.07,30.02,29.99,10,3,1,13,4,17,5.72,8,Rain,336
2013-10-12,70,65,59,57,48,40,84,60,35,30.21,30.13,30.05,10,10,10,15,6,21,0.00,7,,78
2013-10-13,69,61,53,54,50,47,83,66,49,30.35,30.29,30.22,10,10,8,16,7,21,0.01,5,,112
2013-10-14,67,59,51,52,49,46,89,73,56,30.37,30.31,30.24,10,10,10,6,1,10,0.00,4,,189
2013-10-15,71,60,48,55,50,46,93,69,44,30.25,30.18,30.09,10,10,6,6,1,9,0.00,3,,144
2013-10-16,66,61,56,59,54,48,90,81,72,30.09,30.00,29.90,10,9,5,9,3,10,T,8,Rain,131
2013-10-17,71,65,58,63,60,52,93,81,68,29.91,29.83,29.68,10,6,1,21,5,29,0.25,7,Rain,154
2013-10-18,63,55,46,47,43,39,86,65,43,30.01,29.94,29.82,10,10,9,23,7,30,0.00,3,,293
2013-10-19,62,52,41,53,45,39,96,76,55,30.00,29.88,29.75,10,6,0,20,5,28,0.25,5,Fog-Rain,142
2013-10-20,61,51,41,42,37,34,83,60,37,30.09,30.00,29.87,10,10,10,17,7,23,0.00,1,,282
2013-10-21,66,53,39,44,39,36,92,63,34,30.15,30.06,29.95,10,10,9,21,5,25,0.00,1,,158
2013-10-22,60,50,39,45,40,28,92,63,33,29.94,29.86,29.82,10,10,10,17,4,24,T,4,,308
2013-10-23,51,44,36,37,34,31,89,67,44,29.86,29.78,29.69,10,10,10,17,6,31,0.00,5,,318
2013-10-24,49,44,38,35,30,26,76,59,42,30.09,29.99,29.87,10,10,10,20,9,26,0.00,3,,283
2013-10-25,53,45,36,33,30,28,76,60,44,30.29,30.21,30.11,10,10,9,22,9,28,0.00,2,,300
2013-10-26,54,42,30,31,28,25,85,60,35,30.28,30.10,29.92,10,10,8,23,6,33,0.00,2,,213
2013-10-27,56,46,35,34,31,28,82,59,35,30.15,30.03,29.93,10,10,10,16,6,21,0.00,4,,299
2013-10-28,60,46,32,39,34,30,89,61,32,30.31,30.23,30.16,10,10,7,7,1,10,0.00,2,,310
2013-10-29,59,48,36,42,37,34,92,68,43,30.42,30.36,30.31,10,10,7,7,2,9,0.00,3,,333
2013-10-30,64,55,45,52,47,39,93,77,60,30.32,30.24,30.15,7,5,2,8,2,12,0.00,7,,118
2013-10-31,67,60,52,58,54,50,100,84,68,30.19,30.02,29.74,10,3,1,14,6,22,0.05,8,Rain,137